Location: Unspecified
(0.0000°N, 0.0000°E)
Time: 02:19:37
(UTC+00:00)

Courier 1B - All Passes

Search period start: 01 May 2016 00:00
Search period end: 11 May 2016 00:00
Orbit: 963 x 1209 km, 28.3° (Epoch: 30 April)

Date Brightness Start Highest point End Pass type
(mag) Time Alt. Az. Time Alt. Az. Time Alt. Az.
01 May - 07:28:04 10° NNW 07:32:57 21° NNE 07:37:43 10° ENE daylight
01 May - 09:20:41 10° NW 09:27:13 77° NNE 09:33:41 10° ESE daylight
01 May - 11:15:49 10° W 11:21:18 29° SSW 11:26:53 10° SSE daylight
01 May - 18:59:46 10° SSW 19:05:23 22° SSE 19:11:08 10° ESE visible
01 May - 20:52:23 10° SW 21:00:06 68° SSE 21:07:55 10° ENE visible
01 May - 22:47:22 10° W 22:54:37 40° NNW 23:01:46 10° NE night (unlit)
02 May - 00:46:22 10° NW 00:49:46 13° NNW 00:53:07 10° N night (unlit)
02 May - 06:35:04 10° NNW 06:38:57 16° NNE 06:42:46 10° ENE daylight
02 May - 08:27:03 10° NW 08:33:30 54° NNE 08:39:47 10° ESE daylight
02 May - 10:21:30 10° W 10:27:30 40° SSW 10:33:34 10° SE daylight
02 May - 12:20:01 10° SW 12:22:12 12° SSW 12:24:25 10° S daylight
02 May - 18:06:53 10° SSW 18:11:14 16° SSE 18:15:40 10° ESE daylight
02 May - 19:58:44 10° SW 20:06:06 50° SSE 20:13:39 10° ENE visible
02 May - 21:52:59 10° WSW 22:00:34 53° NNW 22:08:11 10° NE visible
02 May - 23:50:32 10° WNW 23:55:30 18° NNW 00:00:25 10° NNE night (unlit)
03 May - 05:42:28 10° N 05:44:51 12° NNE 05:47:13 10° NE daylight
03 May - 07:33:32 10° NW 07:39:43 38° NNE 07:45:42 10° E daylight
03 May - 09:27:21 10° WNW 09:33:46 57° SSW 09:40:07 10° SE daylight
03 May - 11:24:21 10° WSW 11:28:10 16° SSW 11:32:00 10° SSE daylight
03 May - 17:14:39 10° S 17:17:00 12° SSE 17:19:24 10° SE daylight
03 May - 19:05:17 10° SW 19:12:05 37° SSE 19:19:08 10° E visible
03 May - 20:58:52 10° WSW 21:06:33 72° NNW 21:14:25 10° NE visible
03 May - 22:55:17 10° WNW 23:01:18 24° NNW 23:07:18 10° NNE night (unlit)
04 May - 06:40:06 10° NNW 06:45:52 28° NNE 06:51:24 10° E daylight
04 May - 08:33:23 10° WNW 08:40:04 81° SSW 08:46:33 10° ESE daylight
04 May - 10:29:22 10° WSW 10:34:14 22° SSW 10:39:07 10° SSE daylight
04 May - 18:12:02 10° SSW 18:18:04 27° SSE 18:24:19 10° E visible
04 May - 20:04:57 10° WSW 20:12:34 85° SSE 20:20:28 10° ENE visible
04 May - 22:00:27 10° W 22:07:10 31° NNW 22:13:57 10° NNE visible
05 May - 00:00:54 10° NNW 00:02:39 11° NNW 00:04:23 10° N night (unlit)
05 May - 05:46:48 10° NNW 05:51:55 21° NNE 05:56:49 10° ENE daylight
05 May - 07:39:33 10° NW 07:46:20 72° NNE 07:52:50 10° ESE daylight
05 May - 09:34:43 10° W 09:40:24 31° SSW 09:46:00 10° SSE daylight
05 May - 17:19:02 10° SSW 17:24:01 20° SSE 17:29:10 10° ESE daylight
05 May - 19:11:16 10° SW 19:18:37 63° SSE 19:26:19 10° ENE visible
05 May - 21:05:56 10° W 21:13:05 42° NNW 21:20:25 10° NE visible
05 May - 23:04:20 10° NW 23:08:16 14° NNW 23:12:13 10° N night (unlit)
06 May - 04:53:40 10° NNW 04:57:50 16° NNE 05:01:53 10° ENE visible
06 May - 06:45:50 10° NW 06:52:34 51° NNE 06:58:57 10° ESE daylight
06 May - 08:40:19 10° W 08:46:38 43° SSW 08:52:45 10° SE daylight
06 May - 10:38:44 10° SW 10:41:11 12° SSW 10:43:38 10° S daylight
06 May - 16:26:25 10° S 16:29:55 14° SSE 16:33:29 10° SE daylight
06 May - 18:17:46 10° SW 18:24:40 46° SSE 18:31:57 10° E visible
06 May - 20:11:42 10° WSW 20:19:04 56° NNW 20:26:43 10° NE visible
06 May - 22:08:48 10° WNW 22:13:59 19° NNW 22:19:14 10° NNE visible
07 May - 04:00:49 10° N 04:03:39 12° NNE 04:06:24 10° NE visible
07 May - 05:52:13 10° NW 05:58:43 37° NNE 06:04:52 10° E daylight
07 May - 07:46:07 10° WNW 07:52:53 62° SSW 07:59:21 10° SE daylight
07 May - 09:43:05 10° WSW 09:47:12 17° SSW 09:51:16 10° SSE daylight
07 May - 17:24:27 10° SSW 17:30:45 33° SSE 17:37:20 10° E daylight
07 May - 19:17:43 10° WSW 19:25:05 76° NNW 19:32:51 10° NE visible
07 May - 21:13:46 10° WNW 21:19:48 25° NNW 21:25:58 10° NNE visible
08 May - 04:58:42 10° NNW 05:04:46 28° NNE 05:10:32 10° E visible
08 May - 06:52:04 10° WNW 06:59:08 87° SSW 07:05:48 10° ESE daylight
08 May - 08:48:03 10° W 08:53:18 24° SSW 08:58:25 10° SSE daylight
08 May - 16:31:21 10° SSW 16:36:47 24° SSE 16:42:28 10° E daylight
08 May - 18:23:57 10° SW 18:31:10 80° SSE 18:38:50 10° ENE visible
08 May - 20:19:06 10° W 20:25:41 33° NNW 20:32:29 10° NE visible
08 May - 22:18:46 10° NW 22:21:08 11° NNW 22:23:31 10° N visible
09 May - 04:05:19 10° NNW 04:10:43 21° NNE 04:15:55 10° ENE visible
09 May - 05:58:10 10° NW 06:05:20 69° NNE 06:12:04 10° ESE daylight
09 May - 07:53:21 10° W 07:59:28 33° SSW 08:05:20 10° SE daylight
09 May - 15:38:32 10° SSW 15:42:48 17° SSE 15:47:12 10° ESE daylight
09 May - 17:30:23 10° SW 17:37:17 58° SSE 17:44:37 10° ENE daylight
09 May - 19:24:45 10° W 19:31:38 43° NNW 19:38:52 10° NE visible
09 May - 21:22:43 10° NW 21:26:46 15° NNW 21:30:55 10° NNE visible
10 May - 03:12:05 10° NNW 03:16:34 16° NNE 03:20:55 10° ENE visible
10 May - 05:04:22 10° NW 05:11:28 50° NNE 05:18:09 10° ESE visible
10 May - 06:58:54 10° WNW 07:05:40 47° SSW 07:12:04 10° SE daylight
10 May - 08:57:04 10° SW 09:00:11 13° SSW 09:03:15 10° S daylight
10 May - 14:46:18 10° S 14:48:45 12° SSE 14:51:13 10° SE daylight
10 May - 16:37:00 10° SW 16:43:26 41° SSE 16:50:14 10° E daylight
10 May - 18:30:40 10° WSW 18:37:40 59° NNW 18:45:08 10° NE visible
10 May - 20:27:24 10° WNW 20:32:31 19° NNW 20:37:47 10° NNE visible
